Location: Bothwell
(42.3833°S, 147.0000°E)
Time: 15:34:30
(UTC+11:00)

FO-29 - Pass Details

Date: 10 June 2023
Orbit: 799 x 1321 km, 98.5° (Epoch: 01 October)

Event Time Altitude Azimuth Distance (km) Brightness Sun altitude
Rises 18:55:08 0° 180° (S) 4,310 12.8 -23.1°
Reaches altitude 10° 18:59:38 10° 203° (SSW) 3,266 12.4 -23.9°
Maximum altitude 19:02:53 13° 229° (SW) 2,940 12.4 -24.5°
Drops below altitude 10° 19:06:01 10° 255° (WSW) 3,120 13.0 -25.1°
Sets 19:10:08 0° 279° (W) 3,963 14.0 -25.8°
